Total_Precipitation_Accumulation
1.76 1.79 1.77 1.73 1.71 1.73 1.77 1.72 1.58 1.44 1.32 1.24 1.15 1.14 1.14 1.05 1.03 1.11 1.13 1.19 1.32 1.36 1.31 1.34 1.37 1.48 1.62 1.68 1.81 1.95 2.18 2.40 2.48 2.15 1.84 1.63 1.68 1.74 1.83 1.81 1.78 1.73 1.64
1.58 1.64 1.69 1.55 1.47 1.49 1.52 1.50 1.38 1.33 1.27 1.20 1.14 1.11 1.06 0.99 0.96 0.97 0.96 1.00 1.10 1.14 1.19 1.24 1.17 1.23 1.39 1.51 1.65 1.73 1.87 2.05 2.23 2.15 1.88 1.77 1.70 1.75 1.87 1.89 1.69 1.54 1.47
1.24 1.37 1.47 1.36 1.27 1.28 1.28 1.25 1.24 1.20 1.16 1.09 1.05 0.98 0.93 0.93 0.96 0.95 0.91 0.92 0.94 0.98 1.07 1.16 1.19 1.29 1.36 1.46 1.59 1.63 1.74 1.80 2.01 2.01 1.82 1.80 1.78 1.78 1.94 1.87 1.64 1.62 1.31
1.12 1.14 1.21 1.24 1.20 1.16 1.15 1.12 1.06 1.01 0.98 0.92 0.86 0.84 0.85 0.82 0.79 0.81 0.83 0.86 0.91 0.93 0.97 1.02 1.11 1.23 1.35 1.51 1.56 1.64 1.76 1.87 1.96 2.02 1.94 1.91 1.90 1.93 2.05 2.07 1.88 1.70 1.44
1.12 1.14 1.13 1.13 1.05 1.05 1.08 1.06 0.95 0.90 0.83 0.79 0.77 0.75 0.75 0.73 0.67 0.69 0.78 0.81 0.92 0.96 0.98 0.97 0.97 1.05 1.21 1.34 1.39 1.59 1.86 2.01 2.00 2.06 2.02 2.00 1.97 2.07 2.00 1.95 1.93 1.79 1.54
1.16 1.17 1.15 1.14 1.07 1.03 1.06 1.06 0.98 0.95 0.91 0.82 0.81 0.77 0.71 0.61 0.62 0.64 0.68 0.79 0.89 0.94 1.01 0.99 0.89 0.88 0.93 0.99 1.08 1.23 1.51 1.77 1.92 2.00 1.97 1.94 1.91 1.95 1.96 1.90 1.94 1.95 1.77
1.15 1.11 1.16 1.17 1.09 1.01 0.96 1.05 1.03 1.03 0.93 0.87 0.84 0.77 0.71 0.62 0.59 0.56 0.57 0.68 0.84 0.93 1.00 1.01 0.85 0.75 0.89 1.00 1.01 1.03 1.16 1.38 1.66 1.89 1.92 1.78 1.88 1.96 2.06 2.05 1.97 1.97 1.90
1.08 1.03 1.03 1.07 1.09 1.02 0.99 1.00 1.01 1.05 1.03 0.92 0.83 0.81 0.80 0.62 0.58 0.55 0.56 0.66 0.81 0.85 0.87 0.93 0.98 0.98 0.93 0.97 1.03 1.16 1.34 1.45 1.51 1.52 1.69 1.73 1.76 1.80 1.82 1.87 1.92 1.94 1.81
0.97 0.97 0.91 0.88 0.89 0.90 0.89 0.93 1.03 1.05 1.02 0.88 0.81 0.86 0.83 0.66 0.58 0.56 0.57 0.67 0.77 0.78 0.71 0.72 0.78 0.83 0.82 0.90 1.07 1.32 1.52 1.70 1.56 1.51 1.57 1.72 1.72 1.58 1.49 1.66 1.94 2.06 1.88
0.84 0.78 0.77 0.80 0.80 0.82 0.85 0.91 0.92 0.97 0.96 0.82 0.73 0.75 0.72 0.63 0.55 0.51 0.55 0.61 0.71 0.73 0.77 0.76 0.80 0.79 0.81 0.95 1.15 1.47 1.69 1.79 1.62 1.52 1.64 1.78 1.72 1.63 1.60 1.70 1.94 1.97 1.88
0.67 0.63 0.67 0.68 0.69 0.70 0.80 0.84 0.84 0.82 0.86 0.83 0.74 0.69 0.64 0.53 0.46 0.47 0.49 0.51 0.59 0.69 0.76 0.84 0.89 0.90 0.84 0.94 1.17 1.41 1.64 1.71 1.65 1.61 1.66 1.72 1.76 1.79 1.70 1.70 1.78 1.79 1.82
0.60 0.58 0.59 0.59 0.51 0.53 0.72 0.77 0.75 0.81 0.78 0.76 0.80 0.77 0.64 0.52 0.40 0.35 0.37 0.42 0.49 0.71 0.84 0.86 0.89 0.91 0.89 1.01 1.14 1.41 1.68 1.84 1.72 1.60 1.53 1.52 1.51 1.55 1.54 1.46 1.45 1.46 1.52
0.62 0.65 0.58 0.52 0.52 0.51 0.57 0.62 0.66 0.74 0.69 0.64 0.68 0.68 0.59 0.48 0.37 0.26 0.25 0.30 0.41 0.55 0.72 0.88 0.89 0.85 0.98 1.24 1.43 1.59 1.78 1.91 1.80 1.58 1.48 1.37 1.31 1.30 1.28 1.33 1.33 1.30 1.24
0.64 0.66 0.61 0.57 0.55 0.49 0.46 0.43 0.44 0.50 0.53 0.58 0.58 0.57 0.53 0.47 0.34 0.27 0.28 0.30 0.37 0.46 0.59 0.79 0.95 1.03 1.18 1.47 1.70 1.84 1.91 1.87 1.67 1.50 1.39 1.32 1.25 1.22 1.24 1.23 1.28 1.28 1.31
0.61 0.57 0.54 0.51 0.49 0.47 0.40 0.34 0.33 0.34 0.38 0.44 0.47 0.48 0.47 0.39 0.29 0.29 0.30 0.31 0.36 0.44 0.54 0.75 0.96 1.09 1.30 1.53 1.66 1.68 1.67 1.63 1.56 1.42 1.31 1.25 1.22 1.20 1.19 1.19 1.23 1.19 1.24
0.55 0.53 0.47 0.45 0.43 0.40 0.37 0.36 0.30 0.27 0.25 0.26 0.27 0.28 0.29 0.30 0.26 0.25 0.26 0.31 0.39 0.47 0.57 0.82 1.03 1.14 1.32 1.45 1.56 1.53 1.45 1.41 1.37 1.33 1.29 1.22 1.18 1.17 1.19 1.16 1.14 1.14 1.18
0.44 0.45 0.42 0.36 0.36 0.37 0.38 0.45 0.41 0.30 0.24 0.23 0.22 0.23 0.24 0.25 0.24 0.24 0.26 0.31 0.37 0.46 0.61 0.85 1.05 1.20 1.31 1.35 1.40 1.40 1.35 1.29 1.21 1.19 1.19 1.16 1.13 1.13 1.11 1.08 1.05 1.05 1.07
0.35 0.34 0.32 0.31 0.32 0.35 0.32 0.31 0.35 0.40 0.38 0.31 0.24 0.22 0.23 0.23 0.25 0.27 0.29 0.35 0.46 0.54 0.71 0.88 1.03 1.10 1.17 1.24 1.25 1.26 1.25 1.18 1.13 1.13 1.19 1.17 1.09 1.02 0.97 0.96 0.97 0.95 0.93
0.32 0.31 0.28 0.27 0.29 0.30 0.30 0.25 0.24 0.27 0.33 0.34 0.29 0.25 0.24 0.24 0.27 0.32 0.36 0.45 0.57 0.65 0.74 0.84 0.91 0.97 1.03 1.08 1.10 1.08 1.09 1.07 1.02 1.01 1.03 1.04 1.01 0.93 0.87 0.83 0.83 0.77 0.77
0.30 0.31 0.29 0.26 0.26 0.26 0.27 0.25 0.23 0.23 0.26 0.28 0.30 0.28 0.27 0.35 0.42 0.41 0.40 0.44 0.53 0.63 0.70 0.77 0.78 0.78 0.83 0.88 0.85 0.81 0.84 0.85 0.86 0.88 0.87 0.87 0.90 0.87 0.80 0.75 0.73 0.73 0.76
0.28 0.27 0.27 0.26 0.27 0.25 0.24 0.25 0.25 0.24 0.26 0.29 0.26 0.24 0.32 0.40 0.49 0.46 0.46 0.48 0.55 0.60 0.61 0.64 0.67 0.67 0.64 0.64 0.67 0.68 0.72 0.78 0.81 0.82 0.80 0.79 0.78 0.74 0.69 0.65 0.65 0.64 0.63
0.32 0.30 0.29 0.29 0.28 0.25 0.23 0.23 0.24 0.23 0.25 0.28 0.25 0.23 0.34 0.41 0.49 0.51 0.52 0.55 0.57 0.61 0.61 0.59 0.57 0.59 0.61 0.61 0.63 0.67 0.72 0.74 0.75 0.77 0.75 0.73 0.72 0.68 0.64 0.61 0.60 0.61 0.59
0.35 0.34 0.33 0.33 0.30 0.25 0.21 0.21 0.21 0.22 0.22 0.23 0.24 0.26 0.32 0.43 0.53 0.58 0.60 0.61 0.61 0.59 0.54 0.54 0.56 0.58 0.57 0.56 0.56 0.60 0.63 0.63 0.67 0.74 0.76 0.70 0.64 0.61 0.59 0.58 0.58 0.59 0.57
0.29 0.28 0.27 0.27 0.29 0.27 0.23 0.22 0.22 0.22 0.22 0.24 0.27 0.28 0.33 0.41 0.48 0.56 0.62 0.66 0.68 0.66 0.60 0.57 0.58 0.57 0.54 0.51 0.52 0.53 0.52 0.51 0.53 0.58 0.60 0.56 0.52 0.50 0.50 0.51 0.51 0.52 0.52
0.26 0.26 0.26 0.27 0.26 0.23 0.21 0.21 0.23 0.25 0.26 0.28 0.28 0.29 0.30 0.35 0.44 0.49 0.54 0.60 0.64 0.68 0.71 0.71 0.69 0.62 0.54 0.48 0.45 0.45 0.51 0.53 0.49 0.48 0.52 0.50 0.42 0.42 0.45 0.46 0.46 0.46 0.46
0.23 0.23 0.24 0.26 0.26 0.24 0.22 0.21 0.21 0.21 0.23 0.27 0.28 0.27 0.27 0.31 0.37 0.39 0.41 0.45 0.52 0.60 0.67 0.73 0.74 0.65 0.54 0.47 0.46 0.47 0.45 0.37 0.33 0.37 0.47 0.48 0.42 0.39 0.39 0.41 0.40 0.40 0.42